User: anonymous   Login
Location: Ariel
(45.9570°N, 122.5700°W)
Time: 02:17:15
(UTC-07:00)
Language:

Transit 2A - Orbit

View from above orbital plane
View from above orbital plane
View from above satellite
View from above satellite

Ground track
Ground track

The orbit data is extracted from the following two-line orbital elements,

1    45U 60007A   19197.91717429 -.00000084 +00000-0 +61078-5 0  9999
2    45 066.6927 187.7208 0258707 202.1606 156.8151 14.33643851017593
Epoch (UTC): 16 July 2019 22:00:43
Eccentricity: 0.0258707
inclination: 66.6927°
perigee height: 594 km
apogee height: 965 km
right ascension of ascending node: 187.7208°
argument of perigee: 202.1606°
revolutions per day: 14.33643851
mean anomaly at epoch: 156.8151°
orbit number at epoch: 1759

The dashed part of the orbit path shows where the satellite is in the earth's shadow,  

DLR